Flag for Guyana Weather past 2 weeks in Linden, Guyana

Now
90 °F

Scattered clouds.


Feels Like: 100 °F
Forecast: 77 / 87 °F
Wind: 14 mph from East

Location: Georgetown/Cheddi Jagan International Airport

Current Time: Aug 30, 2015 at 12:46:51 PM

Latest Report: Aug 30, 2015 at 12:00 PM


Visibility: N/A

Pressure: 29.92 "Hg

Humidity: 63%

Dew point: 75 °F

Location of LindenLocation

Historic Weather in Linden — Graph

°F

Linden temperature yesterday

Maximum temperature yesterday: 91 °F (at 11:00 AM)
Minimum temperature yesterday: 75 °F (at 2:00 AM)
Average temperature yesterday: 81 °F

Past Weeks' High & Low Weather Summary

 TemperatureHumidityPressure
High93 °F (Aug 20, 4:00 PM)100% (Aug 16, 6:00 AM)29.98 "Hg (Aug 16, 6:00 AM)
Low73 °F (Aug 20, 4:00 AM)52% (Aug 23, 1:00 PM)29.77 "Hg (Aug 22, 4:00 PM)
Average81 °F86%29.88 "Hg
* Reported Aug 15 12:00 Noon — Aug 30 12:00 Noon, Linden, Weather by CustomWeather, © 2015

Note: Actual official high and low records may vary slightly from our data, if they occured in-between our weather recording intervals... More about our weather records

Advertising

Linden weather history for previous 24 hours

 ConditionsComfort  
Time TempWeatherWind HumidityBarometerVisibility
12:00 PM
Sun, Aug 30
90 °FScattered clouds.14 mph63%29.92 "HgN/A
11:00 AM90 °FPartly sunny.12 mph63%29.95 "HgN/A
10:00 AM88 °FThunderstorms. Partly sunny.14 mph66%29.95 "HgN/A
9:00 AM84 °FPartly sunny.9 mph79%29.98 "HgN/A
8:00 AM81 °FScattered clouds.5 mph94%29.95 "HgN/A
7:00 AM77 °FPartly sunny.No wind94%29.92 "HgN/A
6:00 AM77 °FPassing clouds.No wind94%29.92 "HgN/A
5:00 AM77 °FPassing clouds.5 mph94%29.92 "HgN/A
4:00 AM77 °FPassing clouds.5 mph94%29.89 "HgN/A
3:00 AM77 °FPassing clouds.5 mph94%29.89 "HgN/A
1:00 AM77 °FPassing clouds.5 mph94%29.89 "HgN/A
12:00 AM77 °FPassing clouds.No wind94%29.92 "HgN/A
11:00 PM
Sat, Aug 29
77 °FPassing clouds.5 mph94%29.95 "HgN/A
10:00 PM77 °FPassing clouds.No wind100%29.95 "HgN/A
9:00 PM77 °FPassing clouds.No wind100%29.92 "HgN/A
8:00 PM79 °FPartly cloudy.5 mph94%29.89 "HgN/A
7:00 PM81 °FPassing clouds.2 mph89%29.86 "HgN/A
6:00 PM82 °FPartly sunny.2 mph84%29.86 "HgN/A
5:00 PM84 °FThunderstorms. Partly sunny.2 mph79%29.83 "HgN/A
4:00 PM81 °FPartly sunny.5 mph89%29.83 "HgN/A
3:00 PM79 °FSprinkles. Partly sunny.5 mph94%29.83 "Hg6 mi
1:00 PM84 °FBroken clouds.5 mph74%29.92 "HgN/A
12:00 PM86 °FPartly sunny.9 mph70%29.92 "HgN/A
Weather by CustomWeather, © 2015

See weather overviewHow to use our weather pages